Time,TemperatureF,DewpointF,PressureIn,WindDirection,WindDirectionDegrees,WindSpeedMPH,WindSpeedGustMPH,Humidity,HourlyPrecipIn,Conditions,Clouds,dailyrainin,SoftwareType,DateUTC
2013-05-11 00:14:00,62.4,61.0,29.83,South,169,0.0,7.0,96,0.08,,,0.01,weatherlink.com 1.10,2013-05-11 04:14:00,
2013-05-11 00:29:00,62.4,61.0,29.83,SSE,152,0.0,4.0,96,0.03,,,0.01,weatherlink.com 1.10,2013-05-11 04:29:00,
2013-05-11 00:44:00,62.3,61.0,29.84,WNW,288,0.0,3.0,96,0.01,,,0.01,weatherlink.com 1.10,2013-05-11 04:44:00,
2013-05-11 00:59:00,62.3,62.0,29.84,WNW,288,0.0,2.0,97,0.01,,,0.01,weatherlink.com 1.10,2013-05-11 04:59:00,
2013-05-11 01:14:00,62.3,62.0,29.82,WSW,254,3.0,5.0,97,0.00,,,0.01,weatherlink.com 1.10,2013-05-11 05:14:00,
2013-05-11 01:29:00,62.1,61.0,29.82,WSW,254,0.0,2.0,97,0.00,,,0.01,weatherlink.com 1.10,2013-05-11 05:29:00,
2013-05-11 01:44:00,61.9,61.0,29.82,WSW,254,0.0,0.0,97,0.00,,,0.01,weatherlink.com 1.10,2013-05-11 05:44:00,
2013-05-11 01:59:00,61.9,61.0,29.82,WSW,254,0.0,0.0,97,0.00,,,0.01,weatherlink.com 1.10,2013-05-11 05:59:00,
2013-05-11 02:14:00,61.9,61.0,29.81,WSW,255,0.0,0.0,97,0.00,,,0.01,weatherlink.com 1.10,2013-05-11 06:14:00,
2013-05-11 02:29:00,61.9,61.0,29.80,WSW,255,0.0,0.0,97,0.01,,,0.02,weatherlink.com 1.10,2013-05-11 06:29:00,
2013-05-11 02:44:00,61.9,61.0,29.80,SSE,160,0.0,4.0,97,0.02,,,0.03,weatherlink.com 1.10,2013-05-11 06:44:00,
2013-05-11 02:59:00,61.9,61.0,29.80,SE,146,0.0,1.0,97,0.02,,,0.03,weatherlink.com 1.10,2013-05-11 06:59:00,
2013-05-11 03:14:00,61.9,61.0,29.80,SE,146,0.0,1.0,97,0.03,,,0.04,weatherlink.com 1.10,2013-05-11 07:14:00,
2013-05-11 03:29:00,61.8,61.0,29.80,SE,146,0.0,0.0,97,0.02,,,0.04,weatherlink.com 1.10,2013-05-11 07:29:00,
2013-05-11 03:44:00,61.8,61.0,29.79,SE,146,0.0,1.0,97,0.01,,,0.04,weatherlink.com 1.10,2013-05-11 07:44:00,
2013-05-11 03:59:00,62.1,62.0,29.80,SSE,154,1.0,4.0,98,0.01,,,0.04,weatherlink.com 1.10,2013-05-11 07:59:00,
2013-05-11 04:14:00,62.0,62.0,29.79,SSE,157,0.0,0.0,98,0.00,,,0.04,weatherlink.com 1.10,2013-05-11 08:14:00,
2013-05-11 04:29:00,61.8,61.0,29.79,SSE,157,0.0,1.0,97,0.00,,,0.04,weatherlink.com 1.10,2013-05-11 08:29:00,
2013-05-11 04:44:00,61.7,61.0,29.78,SSE,157,0.0,1.0,97,0.00,,,0.04,weatherlink.com 1.10,2013-05-11 08:44:00,
2013-05-11 04:59:00,61.6,61.0,29.78,SSE,157,0.0,1.0,98,0.00,,,0.04,weatherlink.com 1.10,2013-05-11 08:59:00,
2013-05-11 05:14:00,61.5,61.0,29.78,SSE,153,0.0,1.0,98,0.01,,,0.05,weatherlink.com 1.10,2013-05-11 09:14:00,
2013-05-11 05:29:00,61.1,60.0,29.78,SSE,153,0.0,0.0,97,0.01,,,0.05,weatherlink.com 1.10,2013-05-11 09:29:00,
2013-05-11 05:44:00,60.7,60.0,29.78,SSE,153,0.0,0.0,97,0.01,,,0.05,weatherlink.com 1.10,2013-05-11 09:44:00,
2013-05-11 05:59:00,60.3,60.0,29.78,SSE,153,0.0,0.0,97,0.01,,,0.05,weatherlink.com 1.10,2013-05-11 09:59:00,
2013-05-11 06:14:00,59.8,59.0,29.78,SSE,153,0.0,0.0,97,0.00,,,0.05,weatherlink.com 1.10,2013-05-11 10:14:00,
2013-05-11 06:29:00,59.5,59.0,29.78,SSE,153,0.0,0.0,97,0.00,,,0.05,weatherlink.com 1.10,2013-05-11 10:29:00,
2013-05-11 06:44:00,59.3,59.0,29.78,SSE,153,0.0,0.0,97,0.00,,,0.05,weatherlink.com 1.10,2013-05-11 10:44:00,
2013-05-11 06:59:00,59.4,59.0,29.78,SSE,153,0.0,0.0,98,0.00,,,0.05,weatherlink.com 1.10,2013-05-11 10:59:00,
2013-05-11 07:14:00,60.3,60.0,29.78,SSE,153,0.0,0.0,98,0.00,,,0.05,weatherlink.com 1.10,2013-05-11 11:14:00,
2013-05-11 07:29:00,61.1,61.0,29.77,SSE,153,1.0,1.0,98,0.00,,,0.05,weatherlink.com 1.10,2013-05-11 11:29:00,
2013-05-11 07:44:00,61.6,61.0,29.78,SSE,153,0.0,0.0,98,0.00,,,0.05,weatherlink.com 1.10,2013-05-11 11:44:00,
2013-05-11 07:59:00,62.4,62.0,29.77,SSE,161,0.0,2.0,98,0.00,,,0.05,weatherlink.com 1.10,2013-05-11 11:59:00,
2013-05-11 08:14:00,62.4,62.0,29.76,SSE,149,0.0,4.0,98,0.00,,,0.05,weatherlink.com 1.10,2013-05-11 12:14:00,
2013-05-11 08:29:00,62.5,62.0,29.76,SW,236,1.0,3.0,98,0.00,,,0.05,weatherlink.com 1.10,2013-05-11 12:29:00,
2013-05-11 08:44:00,63.0,63.0,29.77,SW,217,1.0,5.0,98,0.00,,,0.05,weatherlink.com 1.10,2013-05-11 12:44:00,
2013-05-11 08:59:00,62.9,62.0,29.77,SE,140,0.0,4.0,98,0.00,,,0.05,weatherlink.com 1.10,2013-05-11 12:59:00,
2013-05-11 09:14:00,63.3,63.0,29.77,SSE,150,0.0,3.0,98,0.00,,,0.05,weatherlink.com 1.10,2013-05-11 13:14:00,
2013-05-11 09:29:00,63.5,63.0,29.77,WSW,240,2.0,5.0,98,0.00,,,0.05,weatherlink.com 1.10,2013-05-11 13:29:00,
2013-05-11 09:44:00,64.4,64.0,29.77,SSW,195,1.0,7.0,98,0.00,,,0.05,weatherlink.com 1.10,2013-05-11 13:44:00,
2013-05-11 09:59:00,65.5,64.0,29.76,West,274,1.0,5.0,96,0.00,,,0.05,weatherlink.com 1.10,2013-05-11 13:59:00,
2013-05-11 10:15:00,66.6,65.0,29.75,SSW,205,0.0,5.0,94,0.00,,,0.05,weatherlink.com 1.10,2013-05-11 14:15:00,
2013-05-11 10:30:00,67.6,65.0,29.75,West,264,0.0,4.0,92,0.00,,,0.05,weatherlink.com 1.10,2013-05-11 14:30:00,
2013-05-11 10:45:00,67.9,65.0,29.75,SW,234,1.0,3.0,90,0.00,,,0.05,weatherlink.com 1.10,2013-05-11 14:45:00,
2013-05-11 11:00:00,68.5,65.0,29.75,WSW,248,0.0,3.0,89,0.00,,,0.05,weatherlink.com 1.10,2013-05-11 15:00:00,
2013-05-11 11:15:00,68.7,65.0,29.75,SW,225,2.0,3.0,88,0.00,,,0.05,weatherlink.com 1.10,2013-05-11 15:15:00,
2013-05-11 11:30:00,69.2,65.0,29.75,SW,222,1.0,3.0,87,0.00,,,0.05,weatherlink.com 1.10,2013-05-11 15:30:00,
2013-05-11 11:45:00,69.5,65.0,29.75,SW,233,0.0,7.0,84,0.00,,,0.05,weatherlink.com 1.10,2013-05-11 15:45:00,
2013-05-11 12:00:00,68.9,64.0,29.75,West,268,0.0,4.0,85,0.00,,,0.05,weatherlink.com 1.10,2013-05-11 16:00:00,
2013-05-11 12:15:00,68.7,64.0,29.74,West,269,0.0,1.0,86,0.00,,,0.05,weatherlink.com 1.10,2013-05-11 16:15:00,
2013-05-11 12:30:00,69.0,65.0,29.75,NW,306,1.0,3.0,87,0.00,,,0.05,weatherlink.com 1.10,2013-05-11 16:30:00,
2013-05-11 12:45:00,69.0,64.0,29.74,SW,227,0.0,3.0,85,0.00,,,0.05,weatherlink.com 1.10,2013-05-11 16:45:00,
2013-05-11 13:00:00,69.5,64.0,29.74,SW,229,0.0,6.0,83,0.00,,,0.05,weatherlink.com 1.10,2013-05-11 17:00:00,
2013-05-11 13:15:00,71.2,65.0,29.73,WSW,238,0.0,8.0,81,0.00,,,0.05,weatherlink.com 1.10,2013-05-11 17:15:00,
2013-05-11 13:30:00,72.6,65.0,29.72,NW,306,2.0,6.0,77,0.00,,,0.05,weatherlink.com 1.10,2013-05-11 17:30:00,
2013-05-11 13:45:00,73.8,65.0,29.72,WSW,250,2.0,8.0,75,0.00,,,0.05,weatherlink.com 1.10,2013-05-11 17:45:00,
2013-05-11 14:00:00,74.4,66.0,29.71,SW,232,4.0,8.0,75,0.00,,,0.05,weatherlink.com 1.10,2013-05-11 18:00:00,
2013-05-11 14:15:00,74.4,65.0,29.71,SE,132,8.0,8.0,72,0.00,,,0.05,weatherlink.com 1.10,2013-05-11 18:15:00,
2013-05-11 14:30:00,74.3,66.0,29.70,SW,221,0.0,7.0,74,0.00,,,0.05,weatherlink.com 1.10,2013-05-11 18:30:00,
2013-05-11 14:45:00,73.4,64.0,29.70,SSW,205,3.0,6.0,72,0.00,,,0.05,weatherlink.com 1.10,2013-05-11 18:45:00,
2013-05-11 15:00:00,73.1,64.0,29.70,WNW,302,2.0,5.0,73,0.00,,,0.05,weatherlink.com 1.10,2013-05-11 19:00:00,
2013-05-11 15:15:00,68.2,62.0,29.71,NE,37,0.0,1.0,81,0.25,,,0.30,weatherlink.com 1.10,2013-05-11 19:15:00,
2013-05-11 15:30:00,64.6,61.0,29.71,WNW,302,4.0,6.0,89,0.38,,,0.43,weatherlink.com 1.10,2013-05-11 19:30:00,
2013-05-11 15:45:00,63.7,61.0,29.70,WNW,283,0.0,4.0,92,0.44,,,0.49,weatherlink.com 1.10,2013-05-11 19:45:00,
2013-05-11 16:00:00,64.5,63.0,29.69,WNW,283,0.0,1.0,94,0.44,,,0.49,weatherlink.com 1.10,2013-05-11 20:00:00,
2013-05-11 16:15:00,65.6,64.0,29.70,WSW,255,0.0,3.0,94,0.19,,,0.49,weatherlink.com 1.10,2013-05-11 20:15:00,
2013-05-11 16:30:00,65.8,64.0,29.70,WSW,255,0.0,1.0,94,0.06,,,0.49,weatherlink.com 1.10,2013-05-11 20:30:00,
2013-05-11 16:45:00,65.8,64.0,29.70,WSW,254,0.0,1.0,94,0.01,,,0.50,weatherlink.com 1.10,2013-05-11 20:45:00,
2013-05-11 17:00:00,66.3,65.0,29.70,WSW,254,0.0,1.0,94,0.01,,,0.50,weatherlink.com 1.10,2013-05-11 21:00:00,
2013-05-11 17:15:00,67.2,66.0,29.69,WSW,254,0.0,1.0,95,0.01,,,0.50,weatherlink.com 1.10,2013-05-11 21:15:00,
2013-05-11 17:30:00,67.9,66.0,29.68,WSW,254,0.0,0.0,94,0.01,,,0.50,weatherlink.com 1.10,2013-05-11 21:30:00,
2013-05-11 17:45:00,69.5,68.0,29.68,WSW,254,0.0,0.0,95,0.00,,,0.50,weatherlink.com 1.10,2013-05-11 21:45:00,
2013-05-11 18:00:00,70.0,66.0,29.68,West,261,0.0,3.0,86,0.00,,,0.50,weatherlink.com 1.10,2013-05-11 22:00:00,
2013-05-11 18:15:00,70.3,66.0,29.69,WSW,256,0.0,2.0,85,0.00,,,0.50,weatherlink.com 1.10,2013-05-11 22:15:00,
2013-05-11 18:30:00,72.0,66.0,29.69,WSW,256,0.0,1.0,82,0.00,,,0.50,weatherlink.com 1.10,2013-05-11 22:30:00,
2013-05-11 18:45:00,73.7,65.0,29.69,West,270,0.0,3.0,74,0.00,,,0.50,weatherlink.com 1.10,2013-05-11 22:45:00,
2013-05-11 19:00:00,72.9,64.0,29.69,West,275,0.0,3.0,73,0.00,,,0.50,weatherlink.com 1.10,2013-05-11 23:00:00,
2013-05-11 19:15:00,71.8,64.0,29.70,West,275,0.0,2.0,76,0.00,,,0.50,weatherlink.com 1.10,2013-05-11 23:15:00,
2013-05-11 19:30:00,71.6,64.0,29.70,West,275,0.0,1.0,78,0.00,,,0.50,weatherlink.com 1.10,2013-05-11 23:30:00,
2013-05-11 19:45:00,71.1,64.0,29.70,West,275,0.0,1.0,77,0.00,,,0.50,weatherlink.com 1.10,2013-05-11 23:45:00,
2013-05-11 20:00:00,69.7,61.0,29.71,WNW,288,0.0,1.0,75,0.00,,,0.50,weatherlink.com 1.10,2013-05-12 00:00:00,
2013-05-11 20:15:00,68.8,61.0,29.71,WNW,288,0.0,0.0,76,0.00,,,0.50,weatherlink.com 1.10,2013-05-12 00:15:00,
2013-05-11 20:31:00,67.4,60.0,29.71,West,276,1.0,2.0,77,0.00,,,0.50,weatherlink.com 1.10,2013-05-12 00:31:00,
2013-05-11 20:46:00,67.5,57.0,29.71,WNW,296,0.0,6.0,70,0.00,,,0.50,weatherlink.com 1.10,2013-05-12 00:46:00,
2013-05-11 21:01:00,67.4,57.0,29.71,WNW,297,0.0,2.0,70,0.00,,,0.50,weatherlink.com 1.10,2013-05-12 01:01:00,
2013-05-11 21:16:00,67.2,57.0,29.71,WNW,297,0.0,1.0,69,0.00,,,0.50,weatherlink.com 1.10,2013-05-12 01:16:00,
2013-05-11 21:31:00,67.0,57.0,29.72,West,269,0.0,2.0,71,0.00,,,0.50,weatherlink.com 1.10,2013-05-12 01:31:00,
2013-05-11 21:46:00,66.3,57.0,29.72,West,269,0.0,1.0,72,0.00,,,0.50,weatherlink.com 1.10,2013-05-12 01:46:00,
2013-05-11 22:01:00,65.2,57.0,29.73,West,269,0.0,0.0,75,0.00,,,0.50,weatherlink.com 1.10,2013-05-12 02:01:00,
2013-05-11 22:16:00,64.1,57.0,29.73,West,270,0.0,0.0,79,0.00,,,0.50,weatherlink.com 1.10,2013-05-12 02:16:00,
2013-05-11 22:31:00,63.7,58.0,29.73,West,270,0.0,0.0,81,0.00,,,0.50,weatherlink.com 1.10,2013-05-12 02:31:00,
2013-05-11 22:46:00,63.4,57.0,29.73,West,270,0.0,0.0,80,0.00,,,0.50,weatherlink.com 1.10,2013-05-12 02:46:00,
2013-05-11 23:01:00,63.0,57.0,29.72,West,270,0.0,0.0,81,0.00,,,0.50,weatherlink.com 1.10,2013-05-12 03:01:00,
2013-05-11 23:16:00,62.4,57.0,29.73,West,269,0.0,0.0,82,0.00,,,0.50,weatherlink.com 1.10,2013-05-12 03:16:00,
2013-05-11 23:31:00,61.7,58.0,29.73,West,270,0.0,0.0,86,0.00,,,0.50,weatherlink.com 1.10,2013-05-12 03:31:00,
2013-05-11 23:46:00,61.0,57.0,29.74,West,269,0.0,0.0,87,0.00,,,0.50,weatherlink.com 1.10,2013-05-12 03:46:00,